This demonstration page uses our WeatherBlox Daily Observations layout. Learn more.

Left ArrowRight Arrow

Hourly Observations for January 20, 2017

Temp ( °F °C ) Dew Point ( °F °C ) Humidity (%) Winds ( mph kmh ) Pressure ( in mb ) Visibility ( mi km ) Precip ( " mm )
12:01 am 00:01 Cloudy with Mist and Fog 47 8.3 46 7.8 97 97 SSE 5 7 29.62 1003 2 2 0.00 0.00
12:10 am 00:10 Cloudy with Fog 46 8 45 7 93 93 SSE 6 9 29.62 1003 0 0 0.00 0.00
12:52 am 00:52 Mostly Cloudy with Fog 47 8.3 47 8.3 100 100 SSE 6 9 29.61 1003 0 0 0.00 0.00
1:45 am 01:45 Cloudy with Fog 47 8.3 46 7.8 97 97 ESE 5 7 29.62 1003 1 1 0.00 0.00
1:52 am 01:52 Cloudy with Mist and Fog 47 8.3 46 7.8 97 97 SE 5 7 29.61 1003 1 1 0.00 0.00
2:01 am 02:01 Cloudy with Mist and Fog 47 8.3 46 7.8 97 97 ESE 5 7 29.62 1003 2 3 0.00 0.00
2:09 am 02:09 Cloudy with Mist and Fog 47 8.3 46 7.8 97 97 SE 5 7 29.62 1003 3 4 0.00 0.00
2:29 am 02:29 Cloudy with Mist and Fog 47 8.3 47 8.3 100 100 SE 6 9 29.62 1003 4 6 0.00 0.00
2:52 am 02:52 Cloudy with Mist and Fog 48 8.9 47 8.3 96 96 SE 5 7 29.60 1002 6 10 0.00 0.00
3:02 am 03:02 Cloudy with Mist and Fog 48 9 46 8 94 94 SE 6 9 29.62 1003 6 10 0.00 0.00
3:52 am 03:52 Cloudy 48 8.9 47 8.3 96 96 S 6 9 29.59 1002 7 11 0.00 0.00
4:52 am 04:52 Cloudy with Mist and Fog 48 8.9 47 8.3 96 96 SE 6 9 29.57 1001 3 5 0.00 0.00
5:14 am 05:14 Cloudy with Mist and Fog 48 9 46 8 94 94 SSE 7 11 29.62 1003 4 6 0.00 0.00
5:31 am 05:31 Cloudy with Mist and Fog 48 8.9 47 8.3 96 96 SE 7 11 29.59 1002 5 8 0.00 0.00
5:41 am 05:41 Cloudy with Mist and Fog 48 8.9 47 8.3 96 96 SE 7 11 29.62 1003 6 10 0.00 0.00
5:52 am 05:52 Cloudy 48 8.9 47 8.3 96 96 SSE 7 11 29.58 1002 7 11 0.00 0.00
6:06 am 06:06 Cloudy 48 8.9 47 8.3 96 96 SSE 8 13 29.62 1003 7 11 0.00 0.00
6:40 am 06:40 Cloudy 48 9 46 8 94 94 S 9 15 29.62 1003 7 11 0.00 0.00
6:52 am 06:52 Cloudy with Light Rain 48 8.9 47 8.3 96 96 SSE 9 15 29.60 1002 5 8 0.00 0.03
7:52 am 07:52 Cloudy 48 8.9 47 8.3 96 96 SE 8 13 29.58 1002 8 13 0.00 0.03
8:52 am 08:52 Cloudy 49 9.4 47 8.3 93 93 SE 10 17 29.57 1001 8 13 0.00 0.00
9:00 am 09:00 Cloudy 48 9 46 8 94 94 SE 9 15 29.59 1002 8 13 0.00 0.00
9:52 am 09:52 Cloudy 50 10 47 8.3 89 89 SSE 14 22 29.60 1002 9 14 0.00 0.00
10:52 am 10:52 Cloudy 52 11.1 48 8.9 86 86 SSE 13 20 29.57 1001 10 16 0.00 0.00
11:52 am 11:52 Mostly Cloudy 56 13.3 47 8.3 72 72 SSE 14 22 29.52 1000 10 16 0.00 0.00
12:04 pm 12:04 Mostly Sunny 57 14 48 9 72 72 SSE 20 31 29.50 999 10 16 0.00 0.00
12:52 pm 12:52 Mostly Sunny 60 15.6 47 8.3 62 62 S 17 28 29.48 998 10 16 0.00 0.00
1:52 pm 13:52 Sunny 62 16.7 48 8.9 60 60 SSE 17 28 29.46 998 10 16 0.00 0.00
2:52 pm 14:52 Sunny 66 18.9 42 5.6 42 42 S 23 37 29.44 997 10 16 0.00 0.00
3:52 pm 15:52 Sunny 65 18.3 42 5.6 43 43 SSW 16 26 29.45 997 10 16 0.00 0.00
4:52 pm 16:52 Sunny 63 17.2 41 5 45 45 S 15 24 29.47 998 10 16 0.00 0.00
5:52 pm 17:52 Clear 59 15 40 4.4 49 49 S 14 22 29.48 998 10 16 0.00 0.00
6:52 pm 18:52 Clear 56 13.3 39 3.9 53 53 S 10 17 29.51 999 10 16 0.00 0.00
7:52 pm 19:52 Clear 56 13.3 39 3.9 53 53 S 13 20 29.52 1000 10 16 0.00 0.00
8:52 pm 20:52 Clear 53 11.7 39 3.9 59 59 S 10 17 29.53 1000 10 16 0.00 0.00
9:52 pm 21:52 Clear 54 12.2 38 3.3 55 55 S 13 20 29.54 1000 10 16 0.00 0.00
10:52 pm 22:52 Clear 52 11.1 38 3.3 59 59 SSE 12 19 29.53 1000 10 16 0.00 0.00
11:52 pm 23:52 Clear 51 10.6 38 3.3 61 61 SSE 15 24 29.53 1000 10 16 0.00 0.00

Powered by AerisWeather